Tracking 29892 objects as of 21-Nov-2024
HD Live streaming from Space Station
objects crossing your sky now

SJ-4

Track SJ-4 now!
10-day predictions
SJ-4 is classified as:


NORAD ID: 22996
Int'l Code: 1994-010A
Perigee: 350.1 km
Apogee: 17,289.5 km
Inclination: 29.1 °
Period: 310.5 minutes
Semi major axis: 15190 km
RCS: 3.0001 m2 (large)
Launch date: February 8, 1994
Source: People's Republic of China (PRC)
Launch site: Xichang Space Center, China (XSC)
Your satellite tracking list
Your tracking list is empty




NASA's NSSDC Master Catalog

Two Line Element Set (TLE):
1 22996U 94010A   24325.39685687  .00001096  00000-0  46757-3 0  9998
2 22996  29.0819  27.4495 5575543 201.4049 120.8552  4.63695581420785
Source of the keplerian elements: AFSPC